Content
SEND FEEDBACK

Daily
Averages
Monthly
Summary
United States of America

PYGA BEACH, GUAM


Home > North America > United States > Guam
Elevation: 20 feet     Latitude: 13 17N     Longitude: 144 39E

WEATHER
 
SELECT A DAY
Number of Records: 357,231;   Date Range: 1/1/95 - 12/25/14
 
SHARE

PRINT THIS DATA

[ ← Previous Day ]
WEATHER ALMANAC - DECEMBER 9, 2013
[ Next Day → ]
[ °C ]   °F
Weather ElementAverageHighLow
Temperature80.1 °F84.2 °F (10:48 am)76.8 °F (3:58 am)
Dewpoint75.8 °F78.8 °F (1:13 pm)71.8 °F (4:58 am)
Humidity87.2 %100 % (1:13 pm)74 % (10:48 am)
Barometer29.80 in29.86 in (8:31 am)29.73 in (2:58 pm)
Wind Speed13.7 mph20.7 mph (1:13 pm)
Wind Gust24.2 mph (8:59 pm)
Weather ElementAverage
Visibility9.5 mi
Wind DirectionENE (69.5 °)

Weather ElementTotal
Precipitation0.10 in
Cooling Degree Days15.5 (Base 65)
Growing Degree Days30.5 (Base 50)
Averaged from 85 records on December 9, 2013
WEATHER CONDITIONS BREAKOUT
WIND DIRECTION BREAKOUT
WEATHER BY HOUR - DECEMBER 9, 2013
[ °C ]   °F
Local TimeTemperatureDewpointHumidityBarometerVisibilityWind DirectionWind SpeedGust SpeedPrecipitationEventsConditions
1:58 AM78.3 °F73.6 °F85 %29.81 in10.0 miENE (60°)10.4 mphScattered Clouds
2:58 AM77.9 °F73.2 °F85 %29.81 in10.0 miENE (70°)10.4 mphScattered Clouds
3:58 AM76.8 °F72.3 °F86 %29.79 in10.0 miEast (80°)11.5 mphClear
4:58 AM77.2 °F71.8 °F83 %29.79 in10.0 miEast (80°)10.4 mphClear
5:58 AM77.2 °F72.7 °F86 %29.81 in10.0 miEast (80°)9.2 mphPartly Cloudy
6:58 AM77.4 °F73.2 °F87 %29.81 in10.0 miEast (80°)8.1 mphClear
7:53 AM80.6 °F73.4 °F79 %29.85 in10.0 miEast (90°)10.4 mphLight Drizzle
7:58 AM80.2 °F74.3 °F82 %29.82 in10.0 miEast (90°)10.4 mph0.00 inLight Drizzle
8:01 AM80.6 °F75.2 °F84 %29.85 in10.0 miENE (70°)10.4 mphScattered Clouds
8:31 AM80.6 °F75.2 °F84 %29.86 in10.0 miENE (70°)12.7 mphMostly Cloudy
8:36 AM80.6 °F75.2 °F84 %29.86 in10.0 miENE (70°)10.4 mphScattered Clouds
8:46 AM80.6 °F75.2 °F84 %29.86 in10.0 miEast (80°)13.8 mphMostly Cloudy
8:51 AM80.6 °F75.2 °F84 %29.86 in10.0 miENE (70°)11.5 mphScattered Clouds
8:58 AM81.7 °F74.5 °F79 %29.83 in10.0 miENE (70°)13.8 mph0.00 inPartly Cloudy
9:58 AM82.9 °F75.2 °F77 %29.83 in10.0 miENE (60°)13.8 mphMostly Cloudy
10:08 AM82.4 °F75.2 °F79 %29.86 in10.0 miNE (50°)13.8 mphMostly Cloudy
10:18 AM82.4 °F75.2 °F79 %29.85 in10.0 miNE (50°)12.7 mphMostly Cloudy
10:23 AM82.4 °F75.2 °F79 %29.85 in10.0 miENE (60°)12.7 mphScattered Clouds
10:48 AM84.2 °F75.2 °F74 %29.85 in10.0 miENE (60°)12.7 mphMostly Cloudy
10:53 AM84.2 °F75.2 °F74 %29.85 in10.0 miNE (50°)15.0 mphMostly Cloudy
10:58 AM83.3 °F75.6 °F77 %29.82 in10.0 miNE (50°)16.1 mphMostly Cloudy
11:03 AM84.2 °F75.2 °F74 %29.84 in10.0 miENE (60°)12.7 mphScattered Clouds
11:18 AM82.4 °F75.2 °F79 %29.84 in10.0 miNE (40°)12.7 mphMostly Cloudy
11:43 AM84.2 °F75.2 °F74 %29.83 in10.0 miNE (50°)15.0 mphMostly Cloudy
11:48 AM82.4 °F75.2 °F79 %29.83 in10.0 miENE (60°)15.0 mphMostly Cloudy
11:53 AM84.2 °F75.2 °F74 %29.82 in10.0 miENE (60°)12.7 mph20.7 mphMostly Cloudy
11:58 AM83.8 °F75.7 °F76 %29.79 in10.0 miNE (50°)15.0 mph20.7 mphMostly Cloudy
12:13 PM84.2 °F75.2 °F74 %29.81 in10.0 miNE (50°)15.0 mphMostly Cloudy
12:33 PM82.4 °F75.2 °F79 %29.81 in10.0 miENE (60°)17.3 mphMostly Cloudy
12:38 PM84.2 °F75.2 °F74 %29.80 in10.0 miNE (50°)18.4 mphMostly Cloudy
12:43 PM82.4 °F75.2 °F79 %29.80 in10.0 miNE (50°)16.1 mphMostly Cloudy
12:48 PM82.4 °F75.2 °F79 %29.80 in10.0 miNE (50°)16.1 mphScattered Clouds
12:51 PM84.2 °F77.0 °F79 %29.80 in10.0 miENE (60°)11.5 mphRainLight Rain
12:58 PM82.2 °F77.9 °F87 %29.77 in6.0 miEast (80°)12.7 mph0.02 inRainHeavy Rain
1:13 PM78.8 °F78.8 °F100 %29.79 in6.0 miNE (50°)20.7 mphRainLight Rain
1:20 PM78.8 °F78.8 °F100 %29.79 in10.0 miNE (50°)18.4 mph21.9 mphMostly Cloudy
1:58 PM81.3 °F73.6 °F77 %29.74 in10.0 miENE (60°)12.7 mph0.03 inScattered Clouds
2:58 PM82.6 °F75.9 °F80 %29.73 in10.0 miNE (50°)16.1 mphScattered Clouds
3:18 PM82.4 °F77.0 °F84 %29.76 in10.0 miENE (60°)16.1 mphMostly Cloudy
3:23 PM82.4 °F75.2 °F79 %29.76 in10.0 miNE (50°)13.8 mphMostly Cloudy
3:28 PM82.4 °F75.2 °F79 %29.76 in10.0 miNE (50°)15.0 mphScattered Clouds
3:31 PM82.4 °F77.0 °F84 %29.76 in10.0 miNE (50°)16.1 mphRainLight Rain
3:36 PM82.4 °F77.0 °F84 %29.76 in10.0 miENE (60°)15.0 mphRainLight Rain
3:41 PM80.6 °F77.0 °F89 %29.77 in4.0 miENE (60°)12.7 mphRainLight Rain
3:50 PM80.6 °F77.0 °F89 %29.77 in10.0 miENE (60°)16.1 mphMostly Cloudy
3:55 PM80.6 °F78.8 °F94 %29.77 in10.0 miENE (70°)18.4 mphMostly Cloudy
3:58 PM80.6 °F77.9 °F91 %29.74 in10.0 miEast (90°)17.3 mph0.00 inMostly Cloudy
4:03 PM78.8 °F78.8 °F100 %29.77 in10.0 miEast (90°)13.8 mphMostly Cloudy
4:08 PM77.0 °F77.0 °F100 %29.77 in10.0 miEast (100°)15.0 mphMostly Cloudy
4:18 PM77.0 °F77.0 °F100 %29.77 in10.0 miEast (100°)12.7 mphOvercast
4:19 PM77.0 °F77.0 °F100 %29.77 in9.0 miEast (80°)11.5 mphRainLight Rain
4:29 PM77.0 °F77.0 °F100 %29.77 in8.0 miEast (80°)15.0 mphLight Drizzle
4:30 PM77.0 °F77.0 °F100 %29.77 in9.0 miEast (80°)13.8 mphScattered Clouds
4:35 PM78.8 °F77.0 °F94 %29.77 in10.0 miENE (70°)17.3 mphMostly Cloudy
4:40 PM78.8 °F77.0 °F94 %29.77 in10.0 miENE (70°)16.1 mphMostly Cloudy
4:58 PM79.7 °F75.2 °F86 %29.74 in10.0 miENE (70°)16.1 mph0.00 inScattered Clouds
5:54 PM78.8 °F77.0 °F94 %29.79 in7.0 miEast (80°)15.0 mphRainLight Rain
5:58 PM79.3 °F76.5 °F91 %29.76 in5.0 miEast (90°)12.7 mph0.02 inRainHeavy Rain
6:03 PM77.0 °F77.0 °F100 %29.79 in2.5 miEast (80°)12.7 mphRainLight Rain
6:08 PM77.0 °F77.0 °F100 %29.79 in4.0 miEast (80°)10.4 mphRainLight Rain
6:10 PM77.0 °F77.0 °F100 %29.79 in10.0 miEast (80°)9.2 mphScattered Clouds
6:15 PM77.0 °F77.0 °F100 %29.79 in10.0 miEast (80°)11.5 mphMostly Cloudy
6:25 PM78.8 °F77.0 °F94 %29.79 in10.0 miENE (70°)9.2 mphMostly Cloudy
6:35 PM78.8 °F77.0 °F94 %29.80 in10.0 miEast (80°)12.7 mphMostly Cloudy
6:50 PM78.8 °F75.2 °F89 %29.80 in10.0 miEast (90°)15.0 mphMostly Cloudy
6:58 PM78.6 °F75.6 °F90 %29.77 in10.0 miEast (100°)12.7 mph0.02 inScattered Clouds
7:23 PM78.8 °F75.2 °F89 %29.81 in10.0 miEast (90°)15.0 mphMostly Cloudy
7:25 PM78.8 °F75.2 °F89 %29.81 in9.0 miEast (90°)15.0 mphRainLight Rain
7:35 PM78.8 °F75.2 °F89 %29.82 in10.0 miENE (70°)11.5 mphLight Drizzle
7:36 PM78.8 °F75.2 °F89 %29.82 in10.0 miENE (70°)11.5 mphOvercast
7:46 PM78.8 °F75.2 °F89 %29.82 in10.0 miEast (80°)12.7 mphOvercast
7:51 PM78.8 °F75.2 °F89 %29.82 in10.0 miEast (80°)16.1 mphOvercast
7:58 PM78.6 °F74.7 °F88 %29.79 in10.0 miEast (80°)13.8 mph0.00 inMostly Cloudy
8:08 PM78.8 °F75.2 °F89 %29.83 in10.0 miEast (80°)13.8 mphMostly Cloudy
8:13 PM78.8 °F75.2 °F89 %29.83 in10.0 miEast (80°)12.7 mphOvercast
8:23 PM78.8 °F78.8 °F100 %29.83 in10.0 miENE (60°)13.8 mphOvercast
8:53 PM78.8 °F75.2 °F89 %29.84 in10.0 miENE (70°)11.5 mphMostly Cloudy
8:58 PM79.0 °F77.5 °F95 %29.81 in10.0 miNE (50°)15.0 mphOvercast
8:59 PM78.8 °F77.0 °F94 %29.84 in10.0 miNE (50°)20.7 mph24.2 mphRainLight Rain
9:04 PM77.0 °F77.0 °F100 %29.84 in9.0 miENE (60°)16.1 mph24.2 mphRainLight Rain
9:14 PM77.0 °F77.0 °F100 %29.84 in9.0 miENE (60°)12.7 mphLight Drizzle
9:17 PM77.0 °F77.0 °F100 %29.84 in10.0 miENE (70°)12.7 mphMostly Cloudy
9:58 PM78.6 °F74.3 °F87 %29.82 in10.0 miEast (90°)12.7 mph0.01 inMostly Cloudy
10:58 PM78.6 °F74.3 °F87 %29.82 in10.0 miEast (90°)13.8 mphMostly Cloudy
11:58 PM78.6 °F73.2 °F83 %29.81 in10.0 miEast (100°)13.8 mphScattered Clouds
Hourly data recorded from PGUA, located miles away from Pyga Beach, Guam







STORIES FROM OUR PARTNERS